Location: Ferchesar
(52.6477°N, 12.4298°E)
Time: 03:38:19
(UTC+01:00)

BUGSAT 1 - Pass Details

Date: 30 October 2021
Orbit: 558 x 600 km, 98.1° (Epoch: 03 December)

Event Time Altitude Azimuth Distance (km) Brightness Sun altitude
Rises 18:31:21 0° 217° (SW) 2,754 ? -7.7°
Reaches altitude 10° 18:34:47 10° 249° (WSW) 1,857 ? -8.2°
Maximum altitude 18:36:22 12° 273° (W) 1,730 ? -8.5°
Drops below altitude 10° 18:37:56 10° 296° (WNW) 1,858 ? -8.7°
Sets 18:41:24 0° 328° (NNW) 2,759 ? -9.2°
